Home   Weather   New City   Past weeks

Flag for USA Past Weather in New City, New York, USA — Yesterday and Last 2 Weeks

Now
78 °F

Passing clouds.


Feels Like: 80 °F
Forecast: 68 / 86 °F
Wind: 8 mph from West

Location: Westchester County Airport

Current Time: Aug 31, 2016 at 10:37:32 AM

Latest Report: Aug 31, 2016 at 9:56 AM


Visibility: 10 mi

Pressure: 29.98 "Hg

Humidity: 71%

Dew Point: 68 °F

Location of New CityLocation

Past Weather in New City — Graph

°F

New City Temperature Yesterday

Maximum temperature yesterday: 83 °F (at 2:56 PM)
Minimum temperature yesterday: 65 °F (at 4:56 AM)
Average temperature yesterday: 73 °F

High & Low Weather Summary for the Past Weeks

 TemperatureHumidityPressure
High89 °F (Aug 26, 3:56 PM)97% (Aug 21, 1:56 AM)30.32 "Hg (Aug 21, 1:56 AM)
Low54 °F (Aug 23, 5:56 AM)37% (Aug 23, 11:56 AM)29.77 "Hg (Aug 21, 8:56 PM)
Average75 °F70%30.05 "Hg
* Reported Aug 16 8:56 AM — Aug 31 8:56 AM, New City, Weather by CustomWeather, © 2016

Note: Actual official high and low records may vary slightly from our data, if they occured in-between our weather recording intervals... More about our weather records

Advertising

New City Weather History for the Previous 24 Hours

Scroll right to see more
 ConditionsComfort  
Time TempWeatherWind HumidityBarometerVisibility
8:56 AM
Wed, Aug 31
75 °FScattered clouds.6 mph82%29.99 "Hg10 mi
7:56 AM73 °FScattered clouds.8 mph90%29.99 "Hg7 mi
6:56 AM70 °FFog.3 mph93%30.00 "Hg6 mi
5:56 AM71 °FPassing clouds.3 mph93%29.99 "Hg8 mi
4:56 AM70 °FPassing clouds.3 mph90%30.00 "Hg8 mi
3:56 AM70 °FClear.No wind93%30.01 "Hg10 mi
2:56 AM71 °FClear.No wind90%30.03 "Hg10 mi
1:56 AM69 °FClear.No wind90%30.03 "Hg10 mi
12:56 AM69 °FClear.No wind90%30.03 "Hg10 mi
11:56 PM
Tue, Aug 30
69 °FClear.No wind90%30.04 "Hg10 mi
10:56 PM70 °FClear.No wind84%30.05 "Hg10 mi
9:56 PM72 °FClear.No wind78%30.05 "Hg10 mi
8:56 PM72 °FClear.6 mph73%30.04 "Hg10 mi
7:56 PM74 °FPassing clouds.7 mph67%30.03 "Hg10 mi
6:56 PM77 °FPassing clouds.No wind62%30.03 "Hg10 mi
5:56 PM80 °FScattered clouds.8 mph54%30.04 "Hg10 mi
4:56 PM80 °FScattered clouds.5 mph52%30.04 "Hg10 mi
3:56 PM79 °FScattered clouds.8 mph56%30.05 "Hg10 mi
2:56 PM83 °FScattered clouds.No wind43%30.07 "Hg10 mi
1:56 PM82 °FScattered clouds.7 mph46%30.11 "Hg10 mi
12:56 PM79 °FScattered clouds.No wind52%30.12 "Hg10 mi
11:56 AM78 °FScattered clouds.6 mph54%30.14 "Hg10 mi
10:56 AM77 °FPassing clouds.6 mph56%30.16 "Hg10 mi
Weather by CustomWeather, © 2016

See weather overviewHow to use our weather pages